User: anonymous   Login
Location: Ocean City
(38.3360°N, 75.0850°W)
Time: 04:31:01
(UTC-04:00)
Language:

MOZHAYETS 4 - Orbit

View from above orbital plane
View from above orbital plane
View from above satellite
View from above satellite

Ground track
Ground track

The orbit data is extracted from the following two-line orbital elements,

1 27939U 03042A   19293.11091380  .00000066  00000-0  20461-4 0  9995
2 27939  98.0586  66.6500 0013690  41.3837 318.8390 14.66809870858637
Epoch (UTC): 20 October 2019 02:39:42
Eccentricity: 0.0013690
inclination: 98.0586°
perigee height: 661 km
apogee height: 681 km
right ascension of ascending node: 66.6500°
argument of perigee: 41.3837°
revolutions per day: 14.66809870
mean anomaly at epoch: 318.8390°
orbit number at epoch: 85863

The dashed part of the orbit path shows where the satellite is in the earth's shadow,  

DLR